Tracking 35237 objects as of 5-Sep-2026
HD Live streaming from Space Station
objects crossing your sky now

STARLINK-4474

Track STARLINK-4474 now!
10-day predictions
STARLINK-4474 is classified as:


NORAD ID: 53547
Int'l Code: 2022-101W
Launch date: August 19, 2022
Source: United States (US)
Launch site: AIR FORCE EASTERN TEST RANGE (AFETR)
Your satellite tracking list
Your tracking list is empty




NASA's NSSDC Master Catalog

Two Line Element Set (TLE):
1 53547U 22101W   26248.60603939  .00000599  00000-0  28872-4 0  9992
2 53547  53.1603 323.3096 0001195  87.9326 272.1813 15.34390780224317
Source of the keplerian elements: AFSPC